Weather History for St. Francis, KS

Change the Weather History Date:

Wednesday, December 12, 2012

  Actual Average Record
Temperature  
Mean Temperature 40 °F -  
Max Temperature 63 °F 44 °F 63 °F (2012)
Min Temperature 16 °F 19 °F 12 °F (2013)
Degree Days  
Heating Degree Days 26    
Moisture  
Dew Point 6 °F    
Average Humidity 35    
Maximum Humidity 65    
Minimum Humidity 7    
Precipitation  
Precipitation 0.00 in - - ()
Sea Level Pressure  
Sea Level Pressure 29.81 in    
Wind  
Wind Speed 9 mph (SW)    
Max Wind Speed 16 mph    
Max Gust Speed 21 mph    
Visibility 10 miles    
Events      
Averages and records for this station are not official NWS values.
T = Trace of Precipitation, MM = Missing Value Source: NWS Daily Summary

Daily Weather History Graph

Daily Weather History Graph

Search for Another Location

Airport:

Trip Planner

Search our weather history database for the weather conditions in past years. The results will help you decide how hot, cold, wet, or windy it might be!

Date:

Astronomy

Dec. 12, 2012 Rise Set
Actual Time 7:59 AM CST 5:22 PM CST
Civil Twilight 7:29 AM CST 5:53 PM CST
Nautical Twilight 6:55 AM CST 6:27 PM CST
Astronomical Twilight 6:22 AM CST 7:00 PM CST
Moon 7:06 AM CST (12/12) 5:02 PM CST (12/12)
Length of Visible Light 10h 24m
Length of Day
9h 23m
Waning Crescent, 1% of the Moon is Illuminated
Dec 12
Waning Crescent
Dec 13
New
Dec 19
First Quarter
Dec 28
Full
Jan 4
Last Quarter

Hourly Weather History & Observations

Time (CST) Temp. Windchill Dew Point Humidity Pressure Visibility Wind Dir Wind Speed Gust Speed Precip Events Conditions
12:15 AM 26.1 °F 15.6 °F 5.9 °F 42% 29.86 in 10.0 mi SW 11.5 mph - N/A   Clear
12:35 AM 24.4 °F 14.9 °F 5.9 °F 45% 29.86 in 10.0 mi SW 9.2 mph - N/A   Clear
12:55 AM 23.4 °F 12.8 °F 6.3 °F 48% 29.86 in 10.0 mi SW 10.4 mph - N/A   Clear
1:15 AM 22.1 °F 14.7 °F 5.9 °F 50% 29.84 in 10.0 mi SSW 5.8 mph - N/A   Clear
1:35 AM 20.8 °F 11.2 °F 5.9 °F 53% 29.83 in 10.0 mi SSW 8.1 mph - N/A   Clear
1:55 AM 21.6 °F 13.0 °F 6.3 °F 52% 29.83 in 10.0 mi South 6.9 mph - N/A   Clear
2:15 AM 21.0 °F 12.4 °F 5.9 °F 52% 29.82 in 10.0 mi South 6.9 mph - N/A   Clear
2:35 AM 21.0 °F 11.4 °F 6.1 °F 53% 29.81 in 10.0 mi South 8.1 mph - N/A   Clear
2:55 AM 21.6 °F 13.0 °F 5.5 °F 50% 29.82 in 10.0 mi SSW 6.9 mph - N/A   Clear
3:15 AM 18.0 °F 9.8 °F 5.0 °F 57% 29.81 in 10.0 mi South 5.8 mph - N/A   Clear
3:35 AM 22.3 °F 11.5 °F 5.7 °F 49% 29.82 in 10.0 mi SW 10.4 mph - N/A   Clear
3:55 AM 16.9 °F 8.5 °F 3.9 °F 57% 29.83 in 10.0 mi WSW 5.8 mph - N/A   Clear
4:15 AM 18.1 °F 8.9 °F 4.6 °F 56% 29.82 in 10.0 mi SSW 6.9 mph - N/A   Clear
4:35 AM 21.2 °F 11.7 °F 5.7 °F 51% 29.81 in 10.0 mi SW 8.1 mph - N/A   Clear
4:55 AM 19.6 °F 9.7 °F 4.5 °F 52% 29.81 in 10.0 mi WSW 8.1 mph - N/A   Clear
5:15 AM 19.4 °F 8.6 °F 5.5 °F 55% 29.82 in 10.0 mi SW 9.2 mph - N/A   Clear
5:35 AM 21.0 °F 11.4 °F 5.9 °F 52% 29.81 in 10.0 mi SW 8.1 mph - N/A   Clear
5:55 AM 21.6 °F 11.3 °F 5.9 °F 51% 29.81 in 10.0 mi SSW 9.2 mph - N/A   Clear
6:15 AM 20.8 °F 10.4 °F 5.9 °F 53% 29.80 in 10.0 mi SW 9.2 mph - N/A   Clear
6:35 AM 21.4 °F - 6.8 °F 53% 29.81 in 10.0 mi Calm Calm - N/A   Clear
7:15 AM 21.0 °F 12.4 °F 7.7 °F 56% 29.81 in 10.0 mi SW 6.9 mph - N/A   Clear
7:35 AM 17.2 °F 6.0 °F 6.6 °F 63% 29.81 in 10.0 mi WSW 9.2 mph - N/A   Clear
7:55 AM 16.5 °F 6.9 °F 6.6 °F 65% 29.81 in 10.0 mi WSW 6.9 mph - N/A   Clear
8:15 AM 19.0 °F 9.0 °F 7.7 °F 61% 29.81 in 10.0 mi SW 8.1 mph - N/A   Clear
8:35 AM 21.0 °F 12.4 °F 8.4 °F 58% 29.82 in 10.0 mi SW 6.9 mph - N/A   Clear
8:55 AM 24.4 °F 16.5 °F 9.0 °F 52% 29.82 in 10.0 mi SW 6.9 mph - N/A   Clear
9:15 AM 26.4 °F 16.6 °F 9.1 °F 48% 29.83 in 10.0 mi SW 10.4 mph - N/A   Clear
9:35 AM 29.1 °F 20.6 °F 9.3 °F 44% 29.84 in 10.0 mi WSW 9.2 mph - N/A   Clear
9:55 AM 31.5 °F 23.5 °F 9.5 °F 40% 29.83 in 10.0 mi WSW 9.2 mph - N/A   Clear
10:15 AM 33.8 °F 27.0 °F 9.9 °F 37% 29.84 in 10.0 mi WSW 8.1 mph - N/A   Clear
10:35 AM 38.3 °F 33.2 °F 9.7 °F 31% 29.83 in 10.0 mi SW 6.9 mph - N/A   Clear
10:55 AM 40.8 °F 36.2 °F 9.1 °F 27% 29.83 in 10.0 mi WSW 6.9 mph - N/A   Clear
11:15 AM 43.2 °F 38.4 °F 8.6 °F 24% 29.83 in 10.0 mi WSW 8.1 mph - N/A   Clear
11:35 AM 47.3 °F - 7.7 °F 20% 29.83 in 10.0 mi SW 8.1 mph - N/A   Clear
11:55 AM 50.5 °F - 7.7 °F 18% 29.82 in 10.0 mi SW 6.9 mph - N/A   Clear
12:15 PM 53.4 °F - 6.8 °F 15% 29.81 in 10.0 mi SW 5.8 mph - N/A   Clear
12:35 PM 56.8 °F - 5.7 °F 13% 29.79 in 10.0 mi WSW 4.6 mph - N/A   Clear
1:15 PM 63.5 °F - -0.6 °F 8% 29.76 in 10.0 mi SSW 13.8 mph 18.4 mph N/A   Clear
1:35 PM 63.7 °F - -1.5 °F 7% 29.76 in 10.0 mi SSW 12.7 mph 18.4 mph N/A   Clear
2:15 PM 63.3 °F - -0.0 °F 8% 29.75 in 10.0 mi South 15.0 mph - N/A   Clear
2:35 PM 63.7 °F - -0.4 °F 8% 29.74 in 10.0 mi South 16.1 mph 20.7 mph N/A   Clear
2:55 PM 63.7 °F - 0.1 °F 8% 29.74 in 10.0 mi South 15.0 mph - N/A   Clear
3:15 PM 63.7 °F - 0.1 °F 8% 29.74 in 10.0 mi South 11.5 mph - N/A   Clear
3:35 PM 62.2 °F - -0.0 °F 8% 29.74 in 10.0 mi South 12.7 mph - N/A   Clear
3:55 PM 60.8 °F - -0.6 °F 8% 29.74 in 10.0 mi South 12.7 mph - N/A   Clear
4:15 PM 59.4 °F - 1.2 °F 10% 29.75 in 10.0 mi South 10.4 mph - N/A   Clear
4:35 PM 56.3 °F - 1.8 °F 11% 29.76 in 10.0 mi South 9.2 mph - N/A   Clear
4:55 PM 51.6 °F - 4.6 °F 15% 29.76 in 10.0 mi South 10.4 mph - N/A   Clear
5:15 PM 48.9 °F - 6.8 °F 18% 29.76 in 10.0 mi South 11.5 mph - N/A   Clear
5:35 PM 51.3 °F - 5.9 °F 16% 29.76 in 10.0 mi South 12.7 mph - N/A   Clear
5:55 PM 46.8 °F - 7.2 °F 20% 29.77 in 10.0 mi South 12.7 mph - N/A   Clear
6:15 PM 43.9 °F 38.3 °F 8.2 °F 23% 29.77 in 10.0 mi South 10.4 mph - N/A   Clear
6:35 PM 44.6 °F 38.1 °F 9.3 °F 24% 29.78 in 10.0 mi SSW 13.8 mph - N/A   Clear
6:55 PM 46.4 °F 41.1 °F 8.4 °F 21% 29.79 in 10.0 mi SW 11.5 mph - N/A   Clear
7:15 PM 42.6 °F 36.8 °F 8.6 °F 25% 29.79 in 10.0 mi SSW 10.4 mph - N/A   Clear
7:35 PM 43.9 °F 36.8 °F 7.9 °F 23% 29.79 in 10.0 mi SSW 15.0 mph 18.4 mph N/A   Clear
7:55 PM 43.2 °F 36.6 °F 8.8 °F 25% 29.81 in 10.0 mi SSW 12.7 mph - N/A   Clear
8:15 PM 40.5 °F 33.2 °F 9.5 °F 28% 29.81 in 10.0 mi SW 12.7 mph - N/A   Clear
8:35 PM 40.6 °F 33.8 °F 9.3 °F 28% 29.81 in 10.0 mi SSW 11.5 mph - N/A   Clear
8:55 PM 37.9 °F 30.0 °F 9.3 °F 31% 29.82 in 10.0 mi SSW 12.7 mph - N/A   Clear
9:15 PM 37.0 °F 29.3 °F 9.3 °F 32% 29.83 in 10.0 mi SSW 11.5 mph - N/A   Clear
9:35 PM 36.7 °F 28.0 °F 9.5 °F 32% 29.83 in 10.0 mi SSW 13.8 mph - N/A   Clear
9:55 PM 36.7 °F 28.4 °F 9.3 °F 32% 29.84 in 10.0 mi SSW 12.7 mph - N/A   Clear
10:15 PM 35.1 °F 27.4 °F 9.3 °F 34% 29.85 in 10.0 mi SW 10.4 mph - N/A   Clear
10:35 PM 32.4 °F 25.3 °F 9.9 °F 39% 29.85 in 10.0 mi WSW 8.1 mph - N/A   Clear
10:55 PM 31.3 °F 25.6 °F 9.9 °F 41% 29.87 in 10.0 mi West 5.8 mph - N/A   Clear
11:15 PM 30.2 °F 22.6 °F 10.8 °F 44% 29.87 in 10.0 mi SSW 8.1 mph - N/A   Clear
11:35 PM 30.2 °F 21.9 °F 11.1 °F 45% 29.88 in 10.0 mi SSW 9.2 mph - N/A   Clear
11:55 PM 30.9 °F 22.2 °F 10.9 °F 43% 29.88 in 10.0 mi SW 10.4 mph - N/A   Clear